FW2343 Weather Reports


Display with metric or nautical units.
time (UTC)temp
F
wind
direction
speed
MPH
gust
MPH
rain 1hr
in
rain 24hr
in
rain mn
in
humidity
%
barometer
mb
20260903042208 62 0 0.0 0.0 0.00 0.00 0.00 77 1023.6
20260903041711 62 0 0.0 0.0 0.00 0.00 0.00 77 1023.6
20260903041215 63 0 0.0 0.0 0.00 0.00 0.00 76 1023.7
20260903040718 63 0 0.0 0.0 0.00 0.00 0.00 76 1023.7
20260903035713 63 0 0.0 0.0 0.00 0.00 0.00 76 1023.6
20260903034210 63 0 0.0 0.0 0.00 0.00 0.00 76 1023.7
20260903033718 63 0 0.0 0.0 0.00 0.00 0.00 76 1023.6
20260903032207 64 0 0.0 0.0 0.00 0.00 0.00 75 1023.6
20260903031712 64 0 0.0 0.0 0.00 0.00 0.00 75 1023.6
20260903030717 64 0 0.0 0.0 0.00 0.00 0.00 74 1023.6
20260903030208 64 0 0.0 0.0 0.00 0.00 0.00 74 1023.5
20260903025219 64 0 0.0 0.0 0.00 0.00 0.00 74 1023.4
20260903024706 64 0 0.0 0.0 0.00 0.00 0.00 74 1023.4
20260903024207 65 0 0.0 0.0 0.00 0.00 0.00 73 1023.4
20260903023710 65 0 0.0 0.0 0.00 0.00 0.00 73 1023.4
20260903023209 65 0 0.0 0.0 0.00 0.00 0.00 73 1023.5
20260903022717 65 0 0.0 0.0 0.00 0.00 0.00 72 1023.4
20260903022215 65 0 0.0 0.0 0.00 0.00 0.00 72 1023.4
20260903020708 66 0 0.0 0.0 0.00 0.00 0.00 72 1023.4
20260903020216 66 0 0.0 0.0 0.00 0.00 0.00 72 1023.5
20260903015217 66 0 0.0 0.0 0.00 0.00 0.00 71 1023.4
20260903014715 66 0 0.0 0.0 0.00 0.00 0.00 71 1023.3
20260903014207 66 0 0.0 0.0 0.00 0.00 0.00 70 1023.4
20260903013714 67 0 0.0 0.0 0.00 0.00 0.00 70 1023.5
20260903013218 67 0 0.0 0.0 0.00 0.00 0.00 70 1023.5
20260903012730 67 0 0.0 0.0 0.00 0.00 0.00 70 1023.4
20260903012215 67 0 0.0 0.0 0.00 0.00 0.00 69 1023.4
20260903011711 67 0 0.0 0.0 0.00 0.00 0.00 69 1023.4
20260903011210 67 0 0.0 0.0 0.00 0.00 0.00 69 1023.4
20260903010714 67 0 0.0 0.0 0.00 0.00 0.00 68 1023.4
20260903010208 68 0 0.0 0.0 0.00 0.00 0.00 68 1023.4
20260903005218 68 0 0.0 0.0 0.00 0.00 0.00 67 1023.4
20260903004707 68 0 0.0 0.0 0.00 0.00 0.00 66 1023.5
20260903004211 68 0 0.0 0.0 0.00 0.00 0.00 66 1023.4
20260903003708 69 0 0.0 0.0 0.00 0.00 0.00 66 1023.4
20260903002718 69 0 0.0 0.0 0.00 0.00 0.00 66 1023.4
20260903002205 69 0 0.0 0.0 0.00 0.00 0.00 65 1023.4
20260903001715 69 0 0.0 0.0 0.00 0.00 0.00 65 1023.5
20260903001211 69 0 0.0 0.0 0.00 0.00 0.00 64 1023.4
20260903000706 70 0 0.0 0.0 0.00 0.00 0.00 64 1023.5
20260903000216 70 0 0.0 0.0 0.00 0.00 0.00 64 1023.6
20260902235217 70 0 0.0 0.0 0.00 0.00 0.00 63 1023.5
20260902234706 70 0 0.0 0.0 0.00 0.00 0.00 63 1023.5
20260902234210 71 0 0.0 0.0 0.00 0.00 0.00 62 1023.5
20260902233719 71 0 0.0 0.0 0.00 0.00 0.00 62 1023.5
20260902233207 71 0 0.0 0.0 0.00 0.00 0.00 61 1023.5
20260902232713 71 0 0.0 0.0 0.00 0.00 0.00 61 1023.4
20260902232207 71 0 0.0 0.0 0.00 0.00 0.00 61 1023.4
20260902231707 71 0 0.0 0.0 0.00 0.00 0.00 62 1023.4
20260902231218 72 0 0.0 0.0 0.00 0.00 0.00 61 1023.5
20260902230706 72 0 0.0 0.0 0.00 0.00 0.00 61 1023.5
20260902230218 72 0 0.0 0.0 0.00 0.00 0.00 60 1023.4
20260902225718 72 0 0.0 0.0 0.00 0.00 0.00 60 1023.4
20260902223716 73 0 0.0 0.0 0.00 0.00 0.00 59 1023.3
20260902223217 73 0 0.0 3.0 0.00 0.00 0.00 59 1023.2
20260902222707 73 0 0.0 3.0 0.00 0.00 0.00 58 1023.2
20260902221707 74 196 0.0 0.0 0.00 0.00 0.00 57 1023.1
20260902221209 74 0 0.0 0.0 0.00 0.00 0.00 57 1023.1
20260902220713 74 0 0.0 0.0 0.00 0.00 0.00 57 1023.1
20260902220213 74 0 0.0 0.0 0.00 0.00 0.00 57 1023.1
20260902215713 74 0 0.0 0.0 0.00 0.00 0.00 56 1023.0
20260902215205 75 0 0.0 0.0 0.00 0.00 0.00 56 1023.0
20260902213705 75 0 0.0 0.0 0.00 0.00 0.00 55 1022.9
20260902213209 75 0 0.0 0.0 0.00 0.00 0.00 55 1022.9
20260902212729 75 0 0.0 0.0 0.00 0.00 0.00 54 1022.8
20260902212212 76 0 0.0 0.0 0.00 0.00 0.00 54 1022.8
20260902211706 76 0 0.0 1.0 0.00 0.00 0.00 54 1022.8
20260902211208 76 0 0.0 3.0 0.00 0.00 0.00 53 1022.8
20260902210711 77 0 0.0 7.0 0.00 0.00 0.00 51 1022.7
20260902210214 78 282 0.0 8.0 0.00 0.00 0.00 50 1022.8
20260902205718 79 284 0.0 8.0 0.00 0.00 0.00 49 1022.7
20260902205210 79 278 1.0 8.0 0.00 0.00 0.00 48 1022.6
20260902204718 80 254 2.0 9.0 0.00 0.00 0.00 47 1022.7
20260902204213 80 284 1.0 9.0 0.00 0.00 0.00 47 1022.7
20260902203715 80 233 2.0 9.0 0.00 0.00 0.00 47 1022.6
20260902203214 80 254 2.0 5.0 0.00 0.00 0.00 47 1022.6
20260902202707 80 243 2.0 0.0 0.00 0.00 0.00 47 1022.5
20260902202205 79 0 0.0 0.0 0.00 0.00 0.00 48 1022.4
20260902201706 79 0 0.0 0.0 0.00 0.00 0.00 48 1022.4
20260902201230 79 0 0.0 0.0 0.00 0.00 0.00 48 1022.3
20260902200708 79 0 0.0 0.0 0.00 0.00 0.00 48 1022.2
20260902200217 79 0 0.0 0.0 0.00 0.00 0.00 48 1022.2
20260902195711 79 0 0.0 0.0 0.00 0.00 0.00 48 1022.2
20260902195208 79 0 0.0 0.0 0.00 0.00 0.00 48 1022.2
20260902194717 80 0 0.0 0.0 0.00 0.00 0.00 47 1022.0
20260902194214 80 0 0.0 0.0 0.00 0.00 0.00 47 1022.0
20260902193717 81 0 0.0 0.0 0.00 0.00 0.00 46 1022.0
20260902193212 81 0 0.0 0.0 0.00 0.00 0.00 46 1022.0
20260902192706 82 0 0.0 0.0 0.00 0.00 0.00 45 1021.9
20260902192217 82 0 0.0 4.0 0.00 0.00 0.00 44 1021.8
20260902191705 82 0 0.0 4.0 0.00 0.00 0.00 43 1021.8
20260902191209 82 0 0.0 4.0 0.00 0.00 0.00 43 1021.7
20260902190715 83 258 0.0 4.0 0.00 0.00 0.00 43 1021.7
20260902190214 83 0 0.0 4.0 0.00 0.00 0.00 42 1021.6
20260902185713 83 246 0.0 6.0 0.00 0.00 0.00 42 1021.5
20260902185209 83 272 1.0 6.0 0.00 0.00 0.00 41 1021.4
20260902184705 84 267 0.0 6.0 0.00 0.00 0.00 41 1021.3
20260902183707 84 244 0.0 5.0 0.00 0.00 0.00 40 1021.2
20260902183206 84 260 0.0 8.0 0.00 0.00 0.00 40 1021.2
20260902181713 85 265 2.0 12.0 0.00 0.00 0.00 39 1021.1
20260902181206 85 233 1.0 12.0 0.00 0.00 0.00 39 1021.1
20260902180716 85 254 5.0 12.0 0.00 0.00 0.00 39 1021.1
20260902180210 85 284 4.0 11.0 0.00 0.00 0.00 39 1021.2
20260902175706 86 277 4.0 11.0 0.00 0.00 0.00 39 1021.2
20260902175205 86 251 5.0 16.0 0.00 0.00 0.00 39 1021.1
20260902174713 86 267 3.0 16.0 0.00 0.00 0.00 39 1021.1
20260902174217 87 255 2.0 16.0 0.00 0.00 0.00 38 1021.1
20260902173708 87 277 5.0 15.0 0.00 0.00 0.00 38 1021.1
20260902173217 87 278 6.0 15.0 0.00 0.00 0.00 38 1021.1
20260902172711 87 260 5.0 15.0 0.00 0.00 0.00 38 1021.0
20260902171706 88 288 4.0 10.0 0.00 0.00 0.00 38 1020.8
20260902171213 88 272 4.0 12.0 0.00 0.00 0.00 38 1020.7
20260902170710 88 316 1.0 14.0 0.00 0.00 0.00 38 1020.8
20260902165715 88 281 3.0 14.0 0.00 0.00 0.00 38 1020.7
20260902165208 89 289 2.0 13.0 0.00 0.00 0.00 37 1020.6
20260902164705 89 278 5.0 13.0 0.00 0.00 0.00 37 1020.6
20260902163709 89 240 4.0 13.0 0.00 0.00 0.00 37 1020.6
20260902162713 89 279 7.0 13.0 0.00 0.00 0.00 37 1020.5
20260902162206 89 279 6.0 13.0 0.00 0.00 0.00 37 1020.6
20260902160705 89 257 5.0 13.0 0.00 0.00 0.00 37 1020.5
20260902160213 89 282 5.0 15.0 0.00 0.00 0.00 37 1020.6
20260902155718 89 293 4.0 15.0 0.00 0.00 0.00 37 1020.6
20260902155212 89 262 4.0 15.0 0.00 0.00 0.00 37 1020.6
20260902154713 89 268 6.0 13.0 0.00 0.00 0.00 37 1020.6
20260902153709 89 292 4.0 14.0 0.00 0.00 0.00 37 1020.7
20260902153218 89 344 6.0 14.0 0.00 0.00 0.00 37 1020.6
20260902152706 89 329 4.0 13.0 0.00 0.00 0.00 38 1020.6
20260902152212 89 285 6.0 15.0 0.00 0.00 0.00 37 1020.7
20260902151715 89 267 4.0 15.0 0.00 0.00 0.00 37 1020.7
20260902151210 89 279 5.0 15.0 0.00 0.00 0.00 37 1020.7
20260902150707 88 300 5.0 9.0 0.00 0.00 0.00 39 1020.7
20260902150212 89 278 4.0 11.0 0.00 0.00 0.00 38 1020.7
20260902145706 89 270 3.0 13.0 0.00 0.00 0.00 38 1020.8
20260902145219 89 326 2.0 18.0 0.00 0.00 0.00 39 1020.7
20260902144712 89 267 4.0 18.0 0.00 0.00 0.00 38 1020.7
20260902144210 89 275 4.0 18.0 0.00 0.00 0.00 37 1020.7
20260902143707 89 244 5.0 15.0 0.00 0.00 0.00 39 1020.8
20260902142718 89 255 5.0 10.0 0.00 0.00 0.00 40 1020.7
20260902142216 89 284 4.0 10.0 0.00 0.00 0.00 40 1020.7
20260902141707 88 7 1.0 12.0 0.00 0.00 0.00 40 1020.8
20260902141211 88 337 3.0 12.0 0.00 0.00 0.00 41 1020.9
20260902140717 88 326 2.0 12.0 0.00 0.00 0.00 40 1020.9
20260902140204 88 272 3.0 11.0 0.00 0.00 0.00 41 1021.0
20260902135217 88 251 1.0 16.0 0.00 0.00 0.00 41 1021.0
20260902134717 88 312 3.0 16.0 0.00 0.00 0.00 42 1021.0
20260902134206 88 288 6.0 12.0 0.00 0.00 0.00 41 1021.1
20260902133214 88 237 6.0 10.0 0.00 0.00 0.00 42 1021.1
20260902132719 88 354 1.0 19.0 0.00 0.00 0.00 42 1021.2
20260902131717 87 327 4.0 19.0 0.00 0.00 0.00 43 1021.2
20260902131210 87 255 7.0 11.0 0.00 0.00 0.00 44 1021.2
20260902130717 87 286 4.0 14.0 0.00 0.00 0.00 43 1021.2
20260902130208 87 260 4.0 14.0 0.00 0.00 0.00 43 1021.2
20260902125709 87 274 4.0 14.0 0.00 0.00 0.00 44 1021.3
20260902125209 86 279 5.0 13.0 0.00 0.00 0.00 44 1021.3
20260902124716 86 302 2.0 16.0 0.00 0.00 0.00 44 1021.4
20260902124211 85 343 4.0 16.0 0.00 0.00 0.00 45 1021.4
20260902123210 85 338 5.0 15.0 0.00 0.00 0.00 45 1021.5
20260902122717 85 347 6.0 14.0 0.00 0.00 0.00 46 1021.5
20260902122211 85 286 4.0 14.0 0.00 0.00 0.00 45 1021.5
20260902121710 86 262 4.0 14.0 0.00 0.00 0.00 45 1021.6
20260902121209 85 39 4.0 14.0 0.00 0.00 0.00 46 1021.6
20260902120712 84 326 6.0 14.0 0.00 0.00 0.00 46 1021.6
20260902115706 85 282 4.0 14.0 0.00 0.00 0.00 45 1021.7
20260902115215 84 344 5.0 13.0 0.00 0.00 0.00 46 1021.8
20260902114705 84 343 4.0 13.0 0.00 0.00 0.00 46 1021.9
20260902114210 84 354 2.0 15.0 0.00 0.00 0.00 46 1021.8
20260902113710 84 336 4.0 15.0 0.00 0.00 0.00 46 1021.9
20260902113214 84 298 3.0 15.0 0.00 0.00 0.00 46 1022.0
20260902112712 84 7 4.0 13.0 0.00 0.00 0.00 46 1021.9
20260902112213 83 347 6.0 16.0 0.00 0.00 0.00 47 1022.0
20260902111213 83 358 4.0 16.0 0.00 0.00 0.00 46 1022.2
20260902110705 83 258 5.0 10.0 0.00 0.00 0.00 47 1022.3
20260902110212 83 264 4.0 10.0 0.00 0.00 0.00 46 1022.4
20260902105213 82 284 2.0 10.0 0.00 0.00 0.00 49 1022.3
20260902104707 82 357 4.0 15.0 0.00 0.00 0.00 49 1022.5
20260902104223 82 323 5.0 15.0 0.00 0.00 0.00 49 1022.5
20260902103711 82 341 2.0 15.0 0.00 0.00 0.00 49 1022.5
20260902103205 82 350 6.0 13.0 0.00 0.00 0.00 49 1022.7
20260902102711 82 253 5.0 13.0 0.00 0.00 0.00 50 1022.8
20260902102216 82 282 4.0 13.0 0.00 0.00 0.00 49 1022.8
20260902101718 82 277 4.0 11.0 0.00 0.00 0.00 49 1022.7
20260902100715 82 257 5.0 12.0 0.00 0.00 0.00 50 1022.9
20260902100218 82 268 4.0 14.0 0.00 0.00 0.00 49 1022.8
20260902095215 81 295 3.0 14.0 0.00 0.00 0.00 50 1022.8
20260902094716 81 282 2.0 12.0 0.00 0.00 0.00 50 1022.8
20260902094218 80 296 2.0 12.0 0.00 0.00 0.00 51 1022.7
20260902093710 80 275 2.0 12.0 0.00 0.00 0.00 50 1022.6
20260902093207 80 284 4.0 11.0 0.00 0.00 0.00 51 1022.6
20260902092718 80 330 4.0 10.0 0.00 0.00 0.00 52 1022.6
20260902091210 80 300 2.0 9.0 0.00 0.00 0.00 53 1022.5
20260902090716 79 275 3.0 11.0 0.00 0.00 0.00 54 1022.5
20260902090205 79 239 3.0 11.0 0.00 0.00 0.00 55 1022.5
20260902085210 78 268 4.0 11.0 0.00 0.00 0.00 55 1022.4
20260902084712 78 281 3.0 10.0 0.00 0.00 0.00 56 1022.4
20260902084219 78 261 2.0 10.0 0.00 0.00 0.00 57 1022.3
20260902083716 78 319 4.0 10.0 0.00 0.00 0.00 57 1022.3
20260902083208 78 340 4.0 10.0 0.00 0.00 0.00 57 1022.4
20260902082705 77 271 4.0 9.0 0.00 0.00 0.00 58 1022.3
20260902082215 77 352 4.0 9.0 0.00 0.00 0.00 59 1022.4
20260902081718 77 312 2.0 10.0 0.00 0.00 0.00 59 1022.3
20260902081208 77 284 2.0 10.0 0.00 0.00 0.00 58 1022.3
20260902080712 77 275 3.0 10.0 0.00 0.00 0.00 59 1022.3
20260902080217 77 278 5.0 10.0 0.00 0.00 0.00 59 1022.2
20260902075719 76 288 3.0 10.0 0.00 0.00 0.00 59 1022.2
20260902075212 76 279 5.0 8.0 0.00 0.00 0.00 60 1022.2
20260902074707 76 289 2.0 6.0 0.00 0.00 0.00 60 1022.1
20260902074210 76 307 2.0 8.0 0.00 0.00 0.00 61 1022.1
20260902073214 75 285 2.0 8.0 0.00 0.00 0.00 62 1022.1
20260902072713 75 264 1.0 3.0 0.00 0.00 0.00 63 1022.1
20260902072216 74 78 0.0 3.0 0.00 0.00 0.00 64 1022.1
20260902071714 73 125 0.0 0.0 0.00 0.00 0.00 65 1022.0
20260902071216 73 0 0.0 0.0 0.00 0.00 0.00 66 1022.1
20260902070716 72 0 0.0 0.0 0.00 0.00 0.00 68 1022.0
20260902070211 71 0 0.0 2.0 0.00 0.00 0.00 69 1022.2
20260902065214 70 0 0.0 2.0 0.00 0.00 0.00 68 1022.0
20260902064714 70 106 0.0 0.0 0.00 0.00 0.00 69 1021.9
20260902064209 69 0 0.0 3.0 0.00 0.00 0.00 71 1021.9
20260902063708 68 0 0.0 3.0 0.00 0.00 0.00 71 1021.9
20260902063213 68 0 0.0 3.0 0.00 0.00 0.00 72 1021.9
20260902062710 67 157 0.0 2.0 0.00 0.00 0.00 73 1021.9
20260902061715 66 195 0.0 4.0 0.00 0.00 0.00 74 1021.9
20260902061219 66 189 0.0 4.0 0.00 0.00 0.00 74 1021.9
20260902060715 66 198 1.0 3.0 0.00 0.00 0.00 75 1021.8
20260902060211 66 233 0.0 3.0 0.00 0.00 0.00 75 1021.8
20260902055712 66 227 1.0 4.0 0.00 0.00 0.00 75 1021.8
20260902055218 65 202 1.0 5.0 0.00 0.00 0.00 75 1021.6
20260902054213 65 201 2.0 5.0 0.00 0.00 0.00 75 1021.5
20260902053717 65 195 3.0 5.0 0.00 0.00 0.00 75 1021.3
20260902053212 65 189 2.0 6.0 0.00 0.00 0.00 75 1021.3
20260902052717 65 223 2.0 6.0 0.00 0.00 0.00 75 1021.2
20260902052216 65 212 3.0 6.0 0.00 0.00 0.00 75 1021.2
20260902051711 65 201 2.0 5.0 0.00 0.00 0.00 75 1021.2
20260902051215 65 213 2.0 5.0 0.00 0.00 0.00 75 1021.2
20260902050715 65 223 2.0 4.0 0.00 0.00 0.00 75 1021.1
20260902045710 65 234 1.0 2.0 0.00 0.00 0.00 74 1021.1
20260902045215 65 191 0.0 3.0 0.00 0.00 0.00 74 1021.1
20260902044707 66 199 1.0 3.0 0.00 0.00 0.00 74 1021.1
20260902043717 66 237 2.0 3.0 0.00 0.00 0.00 74 1020.9
20260902043207 66 192 1.0 2.0 0.00 0.00 0.00 74 1021.0
20260902042709 66 225 1.0 3.0 0.00 0.00 0.00 73 1021.1